[[{"header":{"parameterUnit":"m.s-1","parameterCategory":1,"la1":30.2991,"la2":30.254,"lo1":-89.0895,"lo2":-89.0444,"dy":0.0017,"dx":0.0017,"nx":28,"ny":28,"refTime":"2025-09-12T21:00:00:Z","depth":0,"parameterNumber":2,"parameterNumberName":"U-component_of_WINDS"},"data":[0,0,0,0,0,0,0,0,0,0,0,0,0,0,0,0,0,0,0,0,0,0,0,0,0,0,0,0,0,0,0,0,0,0,0,0,0,0,0,0,0,0,0,0,0,0,0,0,0,0,0,0,0,0,0,0,0,0,-1.1306,-1.1307,0,-1.1377,-1.1378,-1.1378,-1.1345,-1.1343,-1.1342,-1.134,-1.1414,-1.1417,-1.1421,0,0,0,0,0,0,0,0,0,0,0,0,0,-1.1144,-1.1148,-1.1306,-1.1307,-1.1308,-1.1377,-1.1378,-1.1379,-1.1345,-1.1343,-1.1341,-1.1339,-1.1413,-1.1417,-1.1421,0,0,0,0,0,0,0,0,0,0,0,0,0,-1.1215,-1.1149,-1.1306,-1.13,-1.13,-1.1376,-1.1378,-1.1379,-1.1346,-1.1343,-1.1341,-1.1338,-1.1411,-1.1416,-1.1422,-1.1509,0,0,-1.1438,-1.1441,0,0,0,0,0,0,0,0,-1.1211,-1.1221,-1.13,-1.13,-1.13,-1.1349,-1.1348,-1.1423,-1.1347,-1.1328,-1.134,-1.1337,-1.1395,-1.1401,-1.142,-1.1513,-1.1516,-1.1439,-1.1442,-1.1445,-1.1446,0,0,0,0,0,0,0,-1.1206,-1.1218,-1.1334,-1.1301,-1.1301,-1.1294,-1.1301,-1.1362,-1.1376,-1.133,-1.1328,-1.1336,-1.1394,-1.1415,-1.1422,-1.1517,-1.1439,-1.1444,-1.1447,-1.1449,-1.1686,-1.1689,0,0,0,0,0,0,-1.1201,-1.1214,-1.1332,-1.1336,-1.1248,-1.1299,-1.1307,-1.1336,-1.1375,-1.1378,-1.1339,-1.1335,-1.1407,-1.1416,-1.1424,-1.1531,-1.1445,-1.145,-1.1453,-1.1683,-1.1687,-1.169,0,0,0,0,0,0,-1.1198,-1.1212,-1.1329,-1.1274,-1.1289,-1.1305,-1.1338,-1.1339,-1.136,-1.1382,-1.1384,-1.1357,-1.1405,-1.1417,-1.1489,-1.1533,-1.1452,-1.1457,-1.168,-1.1685,-1.1689,-1.1743,0,0,0,0,0,0,-1.1193,-1.1211,-1.1244,-1.1275,-1.1292,-1.1392,-1.1341,-1.1343,-1.1369,-1.1365,-1.14,-1.1403,-1.1404,-1.1481,-1.1494,-1.1539,-1.1461,-1.1676,-1.1682,-1.1687,-1.1737,-1.1749,-1.1759,0,0,0,0,0,-1.1188,-1.1256,-1.1246,-1.126,-1.1333,-1.1394,-1.1404,-1.1403,-1.1373,-1.1407,-1.1421,-1.1402,-1.1526,-1.1488,-1.1503,-1.155,-1.1673,-1.168,-1.1687,-1.1733,-1.1747,-1.1758,0,0,0,0,0,0,-1.1229,-1.126,-1.1249,-1.1329,-1.1359,-1.1388,-1.1431,-1.1418,-1.1457,-1.1451,-1.1449,-1.1458,-1.1533,-1.1548,-1.1506,-1.1638,-1.1595,-1.1605,-1.1625,-1.1638,-1.1648,-1.1643,-1.1466,0,0,0,0,0,-1.1248,-1.1294,-1.1319,-1.1388,-1.1403,-1.1415,-1.1441,-1.1438,-1.147,-1.1482,-1.1501,-1.1533,-1.1579,-1.1609,-1.1653,-1.1739,-1.1747,-1.1779,-1.179,-1.1798,-1.1807,-1.1856,-1.1871,-1.1713,-1.1713,-1.1713,0,0,-1.1287,-1.1309,-1.1339,-1.1397,-1.142,-1.1469,-1.1425,-1.1479,-1.1516,-1.149,-1.156,-1.1575,-1.161,-1.169,-1.1727,-1.1706,-1.1853,-1.1807,-1.1814,-1.1818,-1.1864,-1.1879,-1.1893,-1.1717,-1.1717,-1.1716,0,0,-1.1383,-1.1404,-1.1465,-1.1489,-1.1524,-1.1531,-1.1546,-1.1577,-1.1586,-1.1656,-1.1638,-1.1682,-1.1761,-1.1787,-1.1811,-1.1919,-1.1903,-1.1933,-1.1989,-1.2036,-1.2048,-1.2059,-1.2099,-1.2113,-1.1942,-1.1942,-1.1942,0,-1.1427,-1.15,-1.1497,-1.1553,-1.1579,-1.1559,-1.162,-1.1644,-1.1692,-1.1711,-1.1687,-1.1787,-1.1809,-1.1895,-1.1922,-1.1941,-1.1959,-1.1929,-1.2047,-1.2058,-1.2068,-1.2106,-1.2121,-1.1945,-1.1945,-1.1944,-1.1944,0,-1.1553,-1.1604,-1.1648,-1.1695,-1.1727,-1.1785,-1.1792,-1.1825,-1.1819,-1.183,-1.1902,-1.1927,-1.1976,-1.1997,-1.1992,-1.2083,-1.207,-1.2046,-1.2003,-1.2087,-1.2122,-1.2136,-1.195,-1.1949,-1.1948,-1.1947,0,0,-1.1677,-1.1722,-1.1739,-1.1761,-1.1799,-1.1838,-1.1896,-1.1944,-1.1972,-1.2006,-1.2056,-1.2123,-1.2103,-1.213,-1.2128,-1.2169,-1.2254,-1.2141,-1.2142,-1.2162,-1.2358,-1.2376,-1.2393,-1.2244,-1.2247,-1.2249,-1.2356,0,-1.1776,-1.1877,-1.1878,-1.1971,-1.2019,-1.2001,-1.2051,-1.2081,-1.2092,-1.2135,-1.2147,-1.2196,-1.2164,-1.218,-1.222,-1.2236,-1.2294,-1.2228,-1.2291,-1.2294,-1.2284,-1.2411,-1.243,-1.253,-1.237,-1.2372,-1.2374,0,-1.1906,-1.1945,-1.2043,-1.2075,-1.2095,-1.2141,-1.2185,-1.2226,-1.2259,-1.2265,-1.2296,-1.2288,-1.2348,-1.2303,-1.2387,-1.2342,-1.2368,-1.2379,-1.2383,-1.239,-1.2339,-1.2422,-1.2561,-1.2576,-1.2395,-1.2394,-1.2392,0,-1.1988,-1.2065,-1.2134,-1.2153,-1.2192,-1.2224,-1.2242,-1.2273,-1.2302,-1.2341,-1.2361,-1.2406,-1.2432,-1.2468,-1.2473,-1.2439,-1.2557,-1.2512,-1.2565,-1.2565,-1.2591,-1.2589,-1.2737,-1.2606,-1.2606,-1.2606,-1.2605,0,-1.21,-1.2161,-1.2171,-1.2214,-1.2282,-1.2282,-1.235,-1.2366,-1.2394,-1.244,-1.2426,-1.247,-1.2474,-1.2519,-1.2523,-1.2593,-1.2604,-1.2611,-1.2612,-1.2613,-1.2612,-1.263,-1.2624,-1.261,-1.2609,-1.2608,-1.2607,0,-1.2203,-1.2212,-1.2287,-1.2318,-1.2327,-1.2376,-1.2404,-1.2445,-1.2455,-1.2514,-1.2527,-1.2544,-1.2596,-1.2605,-1.2667,-1.267,-1.2753,-1.2746,-1.2742,-1.2741,-1.2793,-1.2789,-1.2959,-1.2981,-1.2835,-1.2837,-1.2838,0,-1.2274,-1.2321,-1.2357,-1.2387,-1.2407,-1.2455,-1.2485,-1.2487,-1.2519,-1.2562,-1.2598,-1.2649,-1.269,-1.2776,-1.2794,-1.2841,-1.2836,-1.2892,-1.2843,-1.2843,-1.2838,-1.2836,-1.2841,-1.2902,-1.2903,-1.2905,-1.2906,0,-1.24,-1.2402,-1.2445,-1.2491,-1.2527,-1.2563,-1.2597,-1.2623,-1.263,-1.2666,-1.272,-1.2752,-1.2816,-1.2867,-1.2915,-1.2934,-1.2922,-1.2921,-1.2936,-1.2938,-1.2934,-1.2938,-1.2769,-1.2917,-1.2916,-1.2915,-1.2915,-1.2914,-1.249,-1.2531,-1.2564,-1.2613,-1.2639,-1.2671,-1.2712,-1.2727,-1.2772,-1.2824,-1.2823,-1.2882,-1.2916,-1.2979,-1.3001,-1.3048,-1.303,-1.3051,-1.3057,-1.3062,-1.3068,-1.2926,-1.3057,-1.3056,-1.3056,-1.3056,-1.3056,0,-1.2615,-1.2636,-1.2681,-1.2729,-1.2769,-1.2753,-1.279,-1.2824,-1.2877,-1.2909,-1.295,-1.3013,-1.3063,-1.3085,-1.3135,-1.3169,-1.3164,-1.3182,-1.318,-1.3185,-1.308,-1.3063,-1.3184,-1.3184,-1.3184,-1.3184,-1.3184,-1.3184,-1.2686,-1.2755,-1.2762,-1.2844,-1.2864,-1.2922,-1.2945,-1.2975,-1.3001,-1.3072,-1.3113,-1.3127,-1.3156,-1.3208,-1.3254,-1.326,-1.3279,-1.3299,-1.3302,-1.3205,-1.3192,-1.3179,-1.3163,-1.3303,-1.3303,-1.3402,-1.3403,-1.3404]},{"header":{"parameterUnit":"m.s-1","parameterCategory":1,"la1":30.2991,"la2":30.254,"lo1":-89.0895,"lo2":-89.0444,"dy":0.0017,"dx":0.0017,"nx":28,"ny":28,"refTime":"2025-09-12T21:00:00:Z","depth":0,"parameterNumber":3,"parameterNumberName":"V-component_of_WINDS"},"data":[0,0,0,0,0,0,0,0,0,0,0,0,0,0,0,0,0,0,0,0,0,0,0,0,0,0,0,0,0,0,0,0,0,0,0,0,0,0,0,0,0,0,0,0,0,0,0,0,0,0,0,0,0,0,0,0,0,0,-1.1911,-1.1911,0,-1.1892,-1.1892,-1.1891,-1.1873,-1.1873,-1.1872,-1.1872,-1.1852,-1.1852,-1.1852,0,0,0,0,0,0,0,0,0,0,0,0,0,-1.193,-1.193,-1.1911,-1.1911,-1.191,-1.1892,-1.1892,-1.1891,-1.1873,-1.1873,-1.1872,-1.1872,-1.1852,-1.1852,-1.1852,0,0,0,0,0,0,0,0,0,0,0,0,0,-1.1918,-1.193,-1.1911,-1.1899,-1.1898,-1.1892,-1.1892,-1.1891,-1.1873,-1.1873,-1.1872,-1.1872,-1.1853,-1.1852,-1.1852,-1.1856,0,0,-1.185,-1.185,0,0,0,0,0,0,0,0,-1.1918,-1.1917,-1.1901,-1.19,-1.1898,-1.1884,-1.1891,-1.1879,-1.1873,-1.1882,-1.1872,-1.1872,-1.1863,-1.1862,-1.1859,-1.1855,-1.1854,-1.185,-1.185,-1.185,-1.185,0,0,0,0,0,0,0,-1.1919,-1.1918,-1.1903,-1.1901,-1.1899,-1.1894,-1.1892,-1.1889,-1.1875,-1.1882,-1.188,-1.1878,-1.1862,-1.186,-1.1858,-1.1854,-1.185,-1.185,-1.1849,-1.1849,-1.1852,-1.1852,0,0,0,0,0,0,-1.1922,-1.1919,-1.1904,-1.1903,-1.1908,-1.1894,-1.1892,-1.1889,-1.1875,-1.1873,-1.1879,-1.1877,-1.1861,-1.1859,-1.1858,-1.1861,-1.185,-1.1849,-1.1849,-1.1852,-1.1852,-1.1853,0,0,0,0,0,0,-1.1923,-1.1921,-1.1905,-1.191,-1.1908,-1.1894,-1.1892,-1.1889,-1.1886,-1.1873,-1.187,-1.1878,-1.186,-1.1858,-1.1857,-1.1861,-1.1849,-1.1849,-1.1851,-1.1852,-1.1852,-1.1869,0,0,0,0,0,0,-1.1923,-1.1921,-1.1923,-1.191,-1.1908,-1.1904,-1.1892,-1.1889,-1.1885,-1.1884,-1.1872,-1.1869,-1.186,-1.1857,-1.1856,-1.186,-1.1848,-1.1851,-1.1852,-1.1852,-1.1868,-1.187,-1.1872,0,0,0,0,0,-1.1924,-1.1928,-1.1923,-1.1921,-1.1909,-1.1904,-1.1903,-1.1892,-1.1886,-1.1887,-1.1879,-1.187,-1.1861,-1.1857,-1.1856,-1.1859,-1.1851,-1.1851,-1.1852,-1.1868,-1.187,-1.1872,0,0,0,0,0,0,-1.1941,-1.1927,-1.192,-1.1921,-1.1914,-1.1901,-1.1903,-1.1895,-1.1889,-1.1888,-1.1874,-1.1872,-1.1871,-1.1865,-1.1862,-1.1863,-1.1854,-1.1855,-1.1866,-1.1869,-1.1871,-1.1872,-1.1848,0,0,0,0,0,-1.1945,-1.1943,-1.193,-1.1931,-1.1928,-1.1916,-1.1913,-1.1906,-1.1898,-1.1895,-1.1886,-1.1879,-1.1874,-1.1871,-1.1866,-1.1868,-1.1864,-1.1869,-1.1871,-1.1873,-1.1873,-1.1873,-1.1875,-1.1855,-1.1855,-1.1855,0,0,-1.1953,-1.1945,-1.1944,-1.1935,-1.1928,-1.1926,-1.1914,-1.1911,-1.1909,-1.1894,-1.1892,-1.1885,-1.1876,-1.1876,-1.1875,-1.1871,-1.1878,-1.1874,-1.1875,-1.1875,-1.1874,-1.1876,-1.1878,-1.1856,-1.1856,-1.1856,0,0,-1.1966,-1.196,-1.196,-1.1954,-1.1945,-1.1937,-1.1937,-1.1926,-1.1921,-1.1918,-1.1907,-1.1904,-1.1896,-1.189,-1.1886,-1.1897,-1.1888,-1.1896,-1.1905,-1.1906,-1.1907,-1.1908,-1.1912,-1.1913,-1.1897,-1.1897,-1.1897,0,-1.1977,-1.1973,-1.1962,-1.196,-1.1956,-1.1943,-1.1943,-1.1938,-1.1927,-1.1925,-1.192,-1.191,-1.1903,-1.1901,-1.1904,-1.1901,-1.19,-1.1897,-1.1908,-1.1909,-1.191,-1.1913,-1.1914,-1.1897,-1.1897,-1.1897,-1.1897,0,-1.1986,-1.1984,-1.1985,-1.1975,-1.1972,-1.1971,-1.196,-1.1957,-1.195,-1.1942,-1.194,-1.1931,-1.1924,-1.1923,-1.1916,-1.192,-1.1917,-1.191,-1.1902,-1.1913,-1.1916,-1.1917,-1.1899,-1.1898,-1.1898,-1.1898,0,0,-1.2009,-1.1994,-1.1994,-1.199,-1.1979,-1.1976,-1.1975,-1.1968,-1.1966,-1.1959,-1.1958,-1.1952,-1.1945,-1.1941,-1.1933,-1.1933,-1.1941,-1.1926,-1.1925,-1.1928,-1.1945,-1.1949,-1.1951,-1.1936,-1.1936,-1.1936,-1.1945,0,-1.202,-1.2017,-1.2007,-1.2006,-1.2003,-1.1991,-1.199,-1.1983,-1.1976,-1.1972,-1.1964,-1.196,-1.1952,-1.1949,-1.1949,-1.194,-1.1944,-1.194,-1.1934,-1.1934,-1.1936,-1.1952,-1.1957,-1.1966,-1.1946,-1.1946,-1.1947,0,-1.2032,-1.2026,-1.2025,-1.2014,-1.2013,-1.2012,-1.2005,-1.2001,-1.1993,-1.1988,-1.1983,-1.1974,-1.1972,-1.1964,-1.1961,-1.1958,-1.1955,-1.195,-1.195,-1.1949,-1.194,-1.1951,-1.1969,-1.197,-1.1948,-1.1948,-1.1948,0,-1.2048,-1.204,-1.2038,-1.2035,-1.2022,-1.2022,-1.2016,-1.2008,-1.2004,-1.1998,-1.1996,-1.1989,-1.1986,-1.1981,-1.1971,-1.1966,-1.1968,-1.1959,-1.1963,-1.1963,-1.1963,-1.1963,-1.1981,-1.1963,-1.1963,-1.1963,-1.1963,0,-1.206,-1.206,-1.2045,-1.2044,-1.2044,-1.2033,-1.2033,-1.2026,-1.2019,-1.2016,-1.2005,-1.2003,-1.199,-1.1986,-1.1978,-1.1976,-1.1974,-1.197,-1.1967,-1.197,-1.1971,-1.1967,-1.1966,-1.1963,-1.1963,-1.1963,-1.1963,0,-1.2077,-1.2068,-1.2065,-1.2054,-1.2051,-1.2051,-1.2041,-1.2039,-1.2032,-1.2028,-1.2027,-1.2015,-1.201,-1.1999,-1.1991,-1.1986,-1.1985,-1.1982,-1.1988,-1.1987,-1.1991,-1.199,-1.2006,-1.2007,-1.1989,-1.1989,-1.1989,0,-1.2086,-1.2085,-1.2074,-1.2071,-1.2066,-1.2063,-1.2059,-1.2048,-1.2045,-1.2035,-1.2035,-1.2029,-1.2024,-1.2016,-1.2006,-1.2,-1.1996,-1.2002,-1.1995,-1.1998,-1.1995,-1.1995,-1.1995,-1.2003,-1.2004,-1.2004,-1.2004,0,-1.2101,-1.2096,-1.2092,-1.2086,-1.2082,-1.2076,-1.207,-1.2069,-1.2056,-1.2053,-1.2048,-1.2043,-1.2035,-1.2029,-1.2022,-1.2016,-1.2008,-1.2006,-1.2007,-1.2009,-1.2013,-1.201,-1.1992,-1.2006,-1.2006,-1.2006,-1.2005,-1.2005,-1.2114,-1.2113,-1.2104,-1.21,-1.2094,-1.2089,-1.2087,-1.2079,-1.2074,-1.2067,-1.2061,-1.2056,-1.2048,-1.2036,-1.2031,-1.2027,-1.2023,-1.2024,-1.2024,-1.2024,-1.2025,-1.2014,-1.2026,-1.2026,-1.2026,-1.2025,-1.2025,0,-1.2128,-1.2122,-1.2118,-1.211,-1.2106,-1.2099,-1.2092,-1.2089,-1.2085,-1.2078,-1.2073,-1.2067,-1.2061,-1.2052,-1.2045,-1.2043,-1.2039,-1.2042,-1.2042,-1.204,-1.2029,-1.2029,-1.2045,-1.2045,-1.2045,-1.2045,-1.2045,-1.2045,-1.2135,-1.2133,-1.2127,-1.2122,-1.2116,-1.2112,-1.2108,-1.2103,-1.2097,-1.2091,-1.2086,-1.208,-1.2072,-1.2065,-1.2059,-1.2056,-1.2054,-1.2057,-1.2053,-1.2043,-1.2041,-1.2039,-1.2039,-1.2057,-1.2057,-1.2065,-1.2065,-1.2065]}]]